Sacramento / Mc Clellan, CA

10:31 PM PDT on May 28, 2017 (GMT -0700)
McClellan

Weather History for KMCC - June, 2014

Change the Weather History Date:

Monday, June 9, 2014

  Actual Average (KMHR) Record (KMHR)
Temperature  
Mean Temperature 86 °F -  
Max Temperature 104 °F 84 °F 104 °F (2014)
Min Temperature 68 °F 53 °F 48 °F (2011)
Cooling Degree Days 21    
Growing Degree Days 36 (Base 50)    
Moisture  
Dew Point 46 °F    
Average Humidity 29    
Maximum Humidity 52    
Minimum Humidity 6    
Precipitation  
Precipitation 0.00 in - - ()
Sea Level Pressure  
Sea Level Pressure 29.68 in    
Wind  
Wind Speed 4 mph (WSW)    
Max Wind Speed 10 mph    
Max Gust Speed 17 mph    
Visibility 10 miles    
Events      
Averages and records for this station are not official NWS values.
T = Trace of Precipitation, MM = Missing Value Source: NWS Daily Summary

Daily Weather History Graph

Daily Weather History Graph

Search for Another Location

Airport or City:

Trip Planner

Search our weather history database for the weather conditions in past years. The results will help you decide how hot, cold, wet, or windy it might be!

Date:

Astronomy

Jun. 09, 2014 Rise Set
Actual Time 5:40 AM PDT 8:29 PM PDT
Civil Twilight 5:09 AM PDT 9:01 PM PDT
Nautical Twilight 4:29 AM PDT 9:40 PM PDT
Astronomical Twilight 3:43 AM PDT 10:26 PM PDT
Moon 4:58 PM PDT (6/9) 3:08 AM PDT (6/9)
Length of Visible Light 15h 52m
Length of Day
14h 48m
Waxing Gibbous, 86% of the Moon is Illuminated
Jun 9
Waxing Gibbous
Jun 12
Full
Jun 19
Last Quarter
Jun 27
New
Jul 5
First Quarter

Hourly Weather History & Observations

Time (PDT) Temp. Heat Index Dew Point Humidity Pressure Visibility Wind Dir Wind Speed Gust Speed Precip Events Conditions
12:15 AM 78.8 °F - 48.2 °F 34% 29.71 in 10.0 mi NE 3.5 mph - N/A   Clear
12:35 AM 78.8 °F - 50.0 °F 36% 29.71 in 10.0 mi Calm Calm - N/A   Clear
12:55 AM 75.2 °F - 50.0 °F 41% 29.71 in 10.0 mi Calm Calm - N/A   Clear
1:15 AM 77.0 °F - 50.0 °F 39% 29.71 in 10.0 mi East 3.5 mph - N/A   Clear
1:35 AM 78.8 °F - 50.0 °F 36% 29.71 in 10.0 mi East 4.6 mph - N/A   Clear
1:55 AM 77.0 °F - 51.8 °F 41% 29.71 in 10.0 mi East 3.5 mph - N/A   Clear
2:15 AM 75.2 °F - 53.6 °F 47% 29.71 in 10.0 mi ESE 5.8 mph - N/A   Clear
2:35 AM 73.4 °F - 53.6 °F 50% 29.70 in 10.0 mi SE 3.5 mph - N/A   Clear
2:55 AM 73.4 °F - 51.8 °F 47% 29.70 in 10.0 mi Calm Calm - N/A   Clear
3:15 AM 73.4 °F - 50.0 °F 44% 29.70 in 10.0 mi ESE 3.5 mph - N/A   Clear
3:35 AM 73.4 °F - 50.0 °F 44% 29.70 in 10.0 mi Calm Calm - N/A   Clear
3:55 AM 71.6 °F - 50.0 °F 46% 29.70 in 10.0 mi Calm Calm - N/A   Clear
4:15 AM 71.6 °F - 50.0 °F 46% 29.70 in 10.0 mi Calm Calm - N/A   Clear
4:35 AM 68.0 °F - 50.0 °F 52% 29.71 in 10.0 mi WNW 4.6 mph - N/A   Clear
4:55 AM 68.0 °F - 50.0 °F 52% 29.71 in 10.0 mi Calm Calm - N/A   Clear
5:15 AM 68.0 °F - 48.2 °F 49% 29.71 in 10.0 mi South 4.6 mph - N/A   Clear
5:35 AM 68.0 °F - 50.0 °F 52% 29.72 in 10.0 mi Calm Calm - N/A   Clear
5:55 AM 68.0 °F - 50.0 °F 52% 29.72 in 10.0 mi Calm Calm - N/A   Clear
6:15 AM 69.8 °F - 50.0 °F 49% 29.72 in 10.0 mi Calm Calm - N/A   Clear
6:35 AM 68.0 °F - 50.0 °F 52% 29.73 in 10.0 mi Calm Calm - N/A   Clear
6:55 AM 71.6 °F - 51.8 °F 50% 29.73 in 10.0 mi North 3.5 mph - N/A   Clear
7:15 AM 73.4 °F - 51.8 °F 47% 29.73 in 10.0 mi Calm Calm - N/A   Clear
7:35 AM 75.2 °F - 51.8 °F 44% 29.73 in 10.0 mi Calm Calm - N/A   Clear
7:55 AM 78.8 °F - 51.8 °F 39% 29.74 in 10.0 mi Calm Calm - N/A   Clear
8:15 AM 80.6 °F - 51.8 °F 37% 29.74 in 10.0 mi Calm Calm - N/A   Clear
8:35 AM 82.4 °F - 51.8 °F 35% 29.74 in 10.0 mi Calm Calm - N/A   Clear
8:55 AM 84.2 °F - 51.8 °F 33% 29.74 in 10.0 mi NE 3.5 mph - N/A   Clear
9:15 AM 86.0 °F - 50.0 °F 29% 29.74 in 10.0 mi Calm Calm - N/A   Clear
9:35 AM 86.0 °F - 50.0 °F 29% 29.73 in 10.0 mi ENE 4.6 mph - N/A   Clear
9:55 AM 89.6 °F - 50.0 °F 26% 29.73 in 10.0 mi ENE 3.5 mph - N/A   Clear
10:15 AM 89.6 °F - 48.2 °F 24% 29.73 in 10.0 mi WNW 3.5 mph - N/A   Clear
10:35 AM 91.4 °F - 48.2 °F 23% 29.73 in 10.0 mi SW 3.5 mph - N/A   Clear
10:55 AM 91.4 °F - 51.8 °F 26% 29.73 in 10.0 mi SW 5.8 mph - N/A   Clear
11:15 AM 93.2 °F 90.8 °F 53.6 °F 26% 29.73 in 10.0 mi SW 5.8 mph - N/A   Clear
11:35 AM 93.2 °F 90.8 °F 53.6 °F 26% 29.72 in 7.0 mi SW 5.8 mph - N/A   Clear
12:15 PM 95.0 °F - 50.0 °F 22% 29.71 in 9.0 mi WSW 4.6 mph - N/A   Clear
12:35 PM 95.0 °F - 50.0 °F 22% 29.70 in 9.0 mi WNW 3.5 mph - N/A   Clear
12:55 PM 98.6 °F - 48.2 °F 18% 29.70 in 10.0 mi West 6.9 mph - N/A   Clear
1:15 PM 98.6 °F - 48.2 °F 18% 29.70 in 10.0 mi SW 6.9 mph - N/A   Clear
1:35 PM 98.6 °F - 50.0 °F 19% 29.69 in 10.0 mi West 8.1 mph - N/A   Clear
1:55 PM 98.6 °F - 50.0 °F 19% 29.69 in 8.0 mi WNW 8.1 mph - N/A   Clear
2:15 PM 100.4 °F - 46.4 °F 16% 29.69 in 9.0 mi WSW 5.8 mph - N/A   Clear
2:35 PM 102.2 °F - 39.2 °F 11% 29.68 in 10.0 mi West 3.5 mph - N/A   Clear
2:55 PM 102.2 °F - 30.2 °F 8% 29.67 in 10.0 mi WSW 9.2 mph 16.1 mph N/A   Clear
3:15 PM 102.2 °F - 33.8 °F 9% 29.66 in 10.0 mi NW 10.4 mph - N/A   Clear
3:35 PM 102.2 °F - 32.0 °F 9% 29.66 in 10.0 mi NW 9.2 mph 16.1 mph N/A   Clear
3:55 PM 104.0 °F - 26.6 °F 7% 29.65 in 10.0 mi NW 10.4 mph 16.1 mph N/A   Clear
4:15 PM 102.2 °F - 28.4 °F 7% 29.65 in 10.0 mi WNW 9.2 mph 17.3 mph N/A   Clear
4:35 PM 102.2 °F - 24.8 °F 6% 29.64 in 10.0 mi NW 8.1 mph - N/A   Clear
4:55 PM 102.2 °F - 24.8 °F 6% 29.63 in 10.0 mi NW 9.2 mph - N/A   Clear
5:15 PM 104.0 °F - 24.8 °F 6% 29.63 in 10.0 mi NNW 6.9 mph - N/A   Clear
5:35 PM 104.0 °F - 26.6 °F 7% 29.62 in 10.0 mi NW 8.1 mph - N/A   Clear
5:55 PM 102.2 °F - 32.0 °F 9% 29.62 in 10.0 mi NW 6.9 mph - N/A   Clear
6:15 PM 102.2 °F - 32.0 °F 9% 29.62 in 10.0 mi West 6.9 mph - N/A   Clear
6:35 PM 102.2 °F - 32.0 °F 9% 29.61 in 10.0 mi NW 4.6 mph - N/A   Clear
6:55 PM 102.2 °F - 33.8 °F 9% 29.61 in 10.0 mi NW 5.8 mph - N/A   Clear
7:15 PM 102.2 °F - 35.6 °F 10% 29.61 in 10.0 mi NW 5.8 mph - N/A   Clear
7:35 PM 100.4 °F - 35.6 °F 11% 29.61 in 10.0 mi NW 3.5 mph - N/A   Clear
7:55 PM 98.6 °F - 35.6 °F 11% 29.61 in 10.0 mi NW 3.5 mph - N/A   Clear
8:15 PM 95.0 °F - 50.0 °F 22% 29.61 in 10.0 mi SW 8.1 mph - N/A   Clear
8:35 PM 93.2 °F - 50.0 °F 23% 29.61 in 10.0 mi SSW 6.9 mph - N/A   Clear
8:55 PM 91.4 °F - 51.8 °F 26% 29.62 in 10.0 mi SSW 6.9 mph - N/A   Clear
9:15 PM 89.6 °F 87.3 °F 53.6 °F 29% 29.62 in 10.0 mi SSW 8.1 mph - N/A   Clear
9:35 PM 86.0 °F 84.2 °F 53.6 °F 33% 29.63 in 10.0 mi SSW 3.5 mph - N/A   Clear
9:55 PM 86.0 °F 84.2 °F 53.6 °F 33% 29.63 in 10.0 mi SSW 4.6 mph - N/A   Clear
10:15 PM 84.2 °F 82.8 °F 53.6 °F 35% 29.64 in 10.0 mi South 4.6 mph - N/A   Clear
10:35 PM 80.6 °F 80.3 °F 53.6 °F 39% 29.65 in 10.0 mi SSE 6.9 mph - N/A   Clear
10:55 PM 80.6 °F 80.3 °F 53.6 °F 39% 29.65 in 10.0 mi SSE 4.6 mph - N/A   Clear
11:15 PM 80.6 °F 80.3 °F 53.6 °F 39% 29.65 in 10.0 mi SE 8.1 mph - N/A   Clear
11:35 PM 77.0 °F - 51.8 °F 41% 29.65 in 10.0 mi SSE 5.8 mph - N/A   Clear
11:55 PM 77.0 °F - 51.8 °F 41% 29.65 in 10.0 mi SE 6.9 mph - N/A   Clear